{"data":{"norad_id":60438,"intl_designator":"2024-144P","name":"STARLINK-32240","alt_names":[],"object_type":"PAYLOAD","status":"ACTIVE","operator":null,"country":"US","launch_date":"2024-08-12","launch_site_code":"AFETR","launch_vehicle":null,"mission":null,"orbit_class":"UNKNOWN","rcs_meters":null,"size_class":null,"mass_kg":null,"dimensions":null,"purposes":["comms"],"wikipedia_slug":null,"has_3d_model":false,"image_url":null,"decayed_at":null,"tle_current":{"epoch":"2026-09-21T16:49:15.836736Z","epoch_age_seconds":84525,"freshness":"FRESH","line1":"1 60438U 24144P   26264.70087774 -.00000608  00000+0 -68760-5 0  9993","line2":"2 60438  53.1604  22.1227 0001029  82.4023 277.7096 15.34385977119426","mean_motion":15.34385977,"eccentricity":0.0001029,"inclination_deg":53.1604,"raan_deg":22.1227,"arg_perigee_deg":82.4023,"mean_anomaly_deg":277.7096,"bstar":-6.876e-6,"rev_number":11942,"period_min":93.848615771076,"perigee_km":462.0409930862,"apogee_km":463.4488465853,"semimajor_km":6840.8819198357,"source":"CELESTRAK","updated_at":"2026-09-22T09:00:49.236158Z"}}}